• In Österreich
  • Länderverzeichnis
  • Für 7 Tage
  • Wassertemperatur
  • Satellitenkarten
  • Wetterkarte
  • News
  • Widgets
  • user-avatar
    Anmelden

    Stündliche Wetter Ghanzi

    Heute, 24 September, Montag

    Zeit Temperatur Niederschläge Wind Luftdruck Luftfeuchtigkeit
    00:00 +32°C° 0 mm 6 m/S 717 mmHg 20%
    01:00 +30°C° 0 mm 6 m/S 717 mmHg 21%
    02:00 +29°C° 0 mm 6 m/S 716 mmHg 22%
    03:00 +29°C° 0 mm 5 m/S 716 mmHg 22%
    04:00 +28°C° 0 mm 5 m/S 716 mmHg 23%
    05:00 +28°C° 0 mm 5 m/S 716 mmHg 23%
    06:00 +29°C° 0 mm 6 m/S 717 mmHg 23%
    07:00 +29°C° 0 mm 6 m/S 717 mmHg 23%
    08:00 +32°C° 0 mm 6 m/S 717 mmHg 21%
    09:00 +34°C° 0 mm 6 m/S 717 mmHg 19%
    10:00 +36°C° 0 mm 7 m/S 718 mmHg 16%
    11:00 +38°C° 0 mm 6 m/S 717 mmHg 15%
    12:00 +39°C° 0 mm 6 m/S 717 mmHg 14%
    13:00 +40°C° 0 mm 6 m/S 716 mmHg 13%
    14:00 +40°C° 0 mm 6 m/S 716 mmHg 13%
    15:00 +40°C° 0 mm 6 m/S 715 mmHg 13%
    16:00 +40°C° 0 mm 6 m/S 715 mmHg 13%
    17:00 +39°C° 0 mm 6 m/S 715 mmHg 15%
    18:00 +37°C° 0 mm 5 m/S 715 mmHg 16%
    19:00 +35°C° 0 mm 5 m/S 715 mmHg 17%
    20:00 +34°C° 0 mm 5 m/S 716 mmHg 18%
    21:00 +34°C° 0 mm 6 m/S 716 mmHg 19%
    22:00 +33°C° 0 mm 6 m/S 717 mmHg 20%
    23:00 +32°C° 0 mm 6 m/S 716 mmHg 20%

    Morgen, 25 September, Dienstag

    Zeit Temperatur Niederschläge Wind Luftdruck Luftfeuchtigkeit
    00:00 +32°C° 0 mm 6 m/S 716 mmHg 21%
    01:00 +30°C° 0 mm 6 m/S 716 mmHg 22%
    02:00 +29°C° 0 mm 6 m/S 715 mmHg 23%
    03:00 +29°C° 0 mm 6 m/S 715 mmHg 24%
    04:00 +28°C° 0 mm 6 m/S 715 mmHg 26%
    05:00 +28°C° 0 mm 6 m/S 715 mmHg 25%
    06:00 +29°C° 0 mm 6 m/S 716 mmHg 24%
    07:00 +29°C° 0 mm 6 m/S 717 mmHg 24%
    08:00 +32°C° 0 mm 6 m/S 717 mmHg 21%
    09:00 +34°C° 0 mm 6 m/S 717 mmHg 18%
    10:00 +36°C° 0 mm 7 m/S 717 mmHg 15%
    11:00 +38°C° 0 mm 6 m/S 717 mmHg 14%
    12:00 +39°C° 0 mm 6 m/S 716 mmHg 13%
    13:00 +40°C° 0 mm 6 m/S 715 mmHg 12%
    14:00 +40°C° 0 mm 6 m/S 715 mmHg 12%
    15:00 +40°C° 0 mm 6 m/S 715 mmHg 12%
    16:00 +40°C° 0 mm 6 m/S 714 mmHg 12%
    17:00 +39°C° 0 mm 5 m/S 714 mmHg 14%
    18:00 +36°C° 0 mm 5 m/S 715 mmHg 15%
    19:00 +35°C° 0 mm 5 m/S 715 mmHg 16%
    20:00 +34°C° 0 mm 5 m/S 715 mmHg 17%
    21:00 +34°C° 0 mm 5 m/S 716 mmHg 18%
    22:00 +33°C° 0 mm 5 m/S 716 mmHg 19%
    23:00 +32°C° 0 mm 5 m/S 715 mmHg 20%

    übermorgen, 26 September, Mittwoch

    Zeit Temperatur Niederschläge Wind Luftdruck Luftfeuchtigkeit
    00:00 +32°C° 0 mm 5 m/S 715 mmHg 21%
    01:00 +30°C° 0 mm 5 m/S 715 mmHg 22%
    02:00 +29°C° 0 mm 5 m/S 715 mmHg 24%
    03:00 +29°C° 0 mm 5 m/S 715 mmHg 25%
    04:00 +28°C° 0 mm 5 m/S 715 mmHg 26%
    05:00 +29°C° 0 mm 5 m/S 715 mmHg 26%
    06:00 +29°C° 0 mm 5 m/S 715 mmHg 26%
    07:00 +29°C° 0 mm 6 m/S 716 mmHg 25%
    08:00 +33°C° 0 mm 6 m/S 716 mmHg 23%
    09:00 +35°C° 0 mm 6 m/S 716 mmHg 20%
    10:00 +38°C° 0 mm 6 m/S 717 mmHg 17%
    11:00 +39°C° 0 mm 6 m/S 716 mmHg 16%
    12:00 +40°C° 0 mm 6 m/S 715 mmHg 14%
    13:00 +41°C° 0 mm 5 m/S 714 mmHg 13%
    14:00 +41°C° 0 mm 5 m/S 714 mmHg 13%
    15:00 +41°C° 0 mm 5 m/S 714 mmHg 13%
    16:00 +40°C° 0 mm 5 m/S 713 mmHg 12%
    17:00 +39°C° 0 mm 5 m/S 714 mmHg 14%
    18:00 +37°C° 0 mm 5 m/S 714 mmHg 15%
    19:00 +35°C° 0 mm 4 m/S 714 mmHg 16%
    20:00 +35°C° 0 mm 5 m/S 714 mmHg 17%
    21:00 +34°C° 0 mm 5 m/S 715 mmHg 18%
    22:00 +33°C° 0 mm 5 m/S 715 mmHg 19%
    23:00 +33°C° 0 mm 5 m/S 715 mmHg 22%

    27 September, Donnerstag

    Zeit Temperatur Niederschläge Wind Luftdruck Luftfeuchtigkeit
    00:00 +32°C° 0 mm 5 m/S 714 mmHg 24%
    01:00 +30°C° 0 mm 5 m/S 714 mmHg 26%
    02:00 +30°C° 0 mm 5 m/S 714 mmHg 28%
    03:00 +29°C° 0 mm 5 m/S 714 mmHg 30%
    04:00 +29°C° 0 mm 5 m/S 714 mmHg 31%
    05:00 +29°C° 0 mm 6 m/S 714 mmHg 31%
    06:00 +30°C° 0 mm 6 m/S 715 mmHg 30%
    07:00 +30°C° 0 mm 6 m/S 715 mmHg 29%
    08:00 +33°C° 0 mm 6 m/S 715 mmHg 26%
    09:00 +35°C° 0 mm 5 m/S 715 mmHg 22%
    10:00 +37°C° 0 mm 5 m/S 715 mmHg 18%
    11:00 +38°C° 0 mm 4 m/S 715 mmHg 17%
    12:00 +40°C° 0 mm 4 m/S 714 mmHg 15%
    13:00 +40°C° 0 mm 3 m/S 713 mmHg 14%
    14:00 +40°C° 0 mm 3 m/S 713 mmHg 14%
    15:00 +40°C° 0 mm 3 m/S 713 mmHg 13%
    16:00 +40°C° 0 mm 2 m/S 713 mmHg 13%
    17:00 +39°C° 0 mm 3 m/S 713 mmHg 14%
    18:00 +38°C° 0 mm 3 m/S 713 mmHg 15%
    19:00 +36°C° 0 mm 3 m/S 713 mmHg 16%
    20:00 +36°C° 0 mm 4 m/S 714 mmHg 17%
    21:00 +35°C° 0 mm 4 m/S 714 mmHg 18%
    22:00 +34°C° 0 mm 4 m/S 714 mmHg 19%
    23:00 +33°C° 0 mm 4 m/S 714 mmHg 21%

    28 September, Freitag

    Zeit Temperatur Niederschläge Wind Luftdruck Luftfeuchtigkeit
    00:00 +33°C° 0 mm 5 m/S 714 mmHg 23%
    01:00 +32°C° 0 mm 5 m/S 713 mmHg 25%
    02:00 +30°C° 0 mm 5 m/S 713 mmHg 28%
    03:00 +30°C° 0 mm 5 m/S 714 mmHg 31%
    04:00 +29°C° 0 mm 4 m/S 714 mmHg 33%
    05:00 +29°C° 0 mm 5 m/S 714 mmHg 33%
    06:00 +30°C° 0 mm 5 m/S 714 mmHg 33%
    07:00 +30°C° 0 mm 6 m/S 715 mmHg 33%
    08:00 +33°C° 0 mm 5 m/S 715 mmHg 29%
    09:00 +35°C° 0 mm 5 m/S 715 mmHg 25%
    10:00 +37°C° 0 mm 4 m/S 716 mmHg 21%
    11:00 +38°C° 0 mm 3 m/S 715 mmHg 19%
    12:00 +39°C° 0 mm 2 m/S 714 mmHg 17%
    13:00 +40°C° 0 mm 1 m/S 714 mmHg 15%
    14:00 +40°C° 0 mm 1 m/S 713 mmHg 15%
    15:00 +40°C° 0 mm 2 m/S 713 mmHg 14%
    16:00 +40°C° 0 mm 2 m/S 713 mmHg 14%
    17:00 +39°C° 0 mm 2 m/S 713 mmHg 15%
    18:00 +38°C° 0 mm 3 m/S 713 mmHg 16%
    19:00 +37°C° 0 mm 4 m/S 714 mmHg 18%
    20:00 +36°C° 0 mm 5 m/S 714 mmHg 21%
    21:00 +35°C° 0 mm 6 m/S 714 mmHg 25%
    22:00 +34°C° 0 mm 7 m/S 715 mmHg 28%
    23:00 +33°C° 0 mm 8 m/S 715 mmHg 32%

    29 September, Samstag

    Zeit Temperatur Niederschläge Wind Luftdruck Luftfeuchtigkeit
    00:00 +31°C° 0 mm 8 m/S 714 mmHg 36%
    01:00 +29°C° 0 mm 8 m/S 714 mmHg 41%
    02:00 +29°C° 0 mm 8 m/S 714 mmHg 42%
    03:00 +28°C° 0 mm 9 m/S 714 mmHg 43%
    04:00 +28°C° 0 mm 9 m/S 715 mmHg 44%
    05:00 +28°C° 0 mm 9 m/S 715 mmHg 43%
    06:00 +29°C° 0 mm 9 m/S 715 mmHg 42%
    07:00 +29°C° 0 mm 8 m/S 716 mmHg 40%
    08:00 +32°C° 0 mm 8 m/S 716 mmHg 35%
    09:00 +35°C° 0 mm 7 m/S 716 mmHg 29%
    10:00 +38°C° 0 mm 6 m/S 716 mmHg 24%
    11:00 +39°C° 0 mm 6 m/S 715 mmHg 22%
    12:00 +40°C° 0 mm 6 m/S 715 mmHg 20%
    13:00 +41°C° 0 mm 6 m/S 714 mmHg 19%
    14:00 +41°C° 0 mm 6 m/S 714 mmHg 19%
    15:00 +41°C° 0 mm 6 m/S 714 mmHg 19%
    16:00 +40°C° 0 mm 6 m/S 713 mmHg 20%
    17:00 +39°C° 0 mm 6 m/S 714 mmHg 22%
    18:00 +38°C° 0 mm 6 m/S 714 mmHg 23%
    19:00 +36°C° 0 mm 6 m/S 715 mmHg 25%
    20:00 +35°C° 0 mm 6 m/S 715 mmHg 27%
    21:00 +34°C° 0 mm 7 m/S 715 mmHg 28%
    22:00 +33°C° 0 mm 7 m/S 715 mmHg 30%
    23:00 +32°C° 0 mm 7 m/S 715 mmHg 30%
    Mehr zeigen

    3.3.7123123